Location: Bolzano
(46.5170°N, 11.3670°E)
Time: 16:52:45
(UTC+01:00)

N. Korean satellite - Visible Passes

Search period start: 27 October 2020 00:00
Search period end: 06 November 2020 00:00
Orbit: 452 x 505 km, 97.2° (Epoch: 26 October)

Date Brightness Start Highest point End Pass type
(mag) Time Alt. Az. Time Alt. Az. Time Alt. Az.
27 Oct 9.8 04:53:36 10° NE 04:55:40 15° E 04:57:43 10° SE visible
28 Oct 6.3 05:59:41 10° N 06:03:06 77° WNW 06:06:30 10° SSW visible
28 Oct 10.5 18:13:27 10° WSW 18:14:16 11° W 18:15:04 10° WNW visible
29 Oct 7.6 05:33:38 10° NNE 05:36:57 47° E 05:40:14 10° S visible
29 Oct 9.7 17:45:10 10° SW 17:47:55 21° W 17:50:38 10° NW visible
30 Oct 9.1 05:07:56 10° NE 05:10:41 22° E 05:13:26 10° SSE visible
31 Oct 10.1 04:43:13 10° ENE 04:44:20 11° E 04:45:27 10° ESE visible
31 Oct 6.6 06:14:40 10° N 06:17:58 47° WNW 06:21:16 10° SSW visible
01 Nov 6.6 05:48:26 10° NNE 05:51:51 76° E 05:55:16 10° S visible
01 Nov 10.0 18:00:59 10° SW 18:02:55 14° W 18:04:50 10° WNW visible
02 Nov 8.3 05:22:29 10° NNE 05:25:39 34° E 05:28:47 10° SSE visible
02 Nov 9.0 17:33:32 10° SSW 17:36:35 27° W 17:39:36 10° NW visible
03 Nov 9.6 04:57:02 10° NE 04:59:20 17° E 05:01:38 10° SE visible
04 Nov 6.3 06:03:17 10° N 06:06:42 68° WNW 06:10:06 10° SSW visible
05 Nov 7.3 05:37:09 10° NNE 05:40:31 53° E 05:43:53 10° S visible
05 Nov 9.7 17:49:01 10° SW 17:51:30 18° W 17:54:00 10° NW visible
